GOES 2

Satellite information

Favourite Embed

Satellite Type and Status

PAYLOADIN ORBIT

Key statistics

Satellite GOES 2 at a glance.

Uptime

17713

Days in orbit

Revolutions

≈ 1.0

Per day

Orbit

OTHER

Other

Inclination

6.9

Latest

Satellite identification and parameters

Extended collection of information and parameters for GOES 2.

Object identification

Identified? True

Debris? False

Object name: GOES 2

International designator: 1977-048A

Object number (NORAD): 10061

Object ID (CCSDS): 10061

Country: UNITED STATES OF AMERICA (US)

Current information (Y/N): Y

RCS size: LARGE

Orbital parameters

Period: 1448.688 minutes

Inclination: 6.8623 deg

SMA: 42410.834 km

Apoapsis: 36086.549 km

Periapsis: 35978.849 km

RAAN: 294.8892 deg

Eccentricy: 0.00126972

Argument of periapsis: 39.2023 deg

Mean anomaly: 346.1379 deg

Mean motion: 0.99400265 rev/day

Mean motion (dot): -0.00000071 rev/day2

B* drag term: 0.0 1/REarth

Two-line elements (TLE)

Creation date: Dec. 14, 2025, 3:07 a.m.

Reference frame: TEME

Reference center: EARTH

Epoch: Dec. 13, 2025, 3:12 p.m. UTC

TLE line 0: 0 GOES 2

TLE line 1: 1 10061U 77048A 25347.63354369 -.00000071 00000-0 00000-0 0 9993

TLE line 2: 2 10061 6.8623 294.8892 0012697 39.2023 346.1379 0.99400265 44434

Live tracking on map

Real-time ground track for satellite GOES 2.

In-orbit conjunctions

There are no conjunctions computed for GOES 2, at the moment. Check back to stay up to date, as we update our databases every day.

Go to all conjunctions

Associated space launch

Geostationary meteorological satellite

GOES 2 was lifted into orbit during the mission ‘Delta 2914 | GOES 2’, on board a Delta 2914 space rocket.

The launch took place on June 16, 1977, 10:51 a.m. from Space Launch Complex 17B.

For more information about the launch, click the button.

Launch to space Delta 2914 | GOES 2
Delta 2914 | GOES 2

Agency: N/A

Status: Launch Successful

Launch date: June 16, 1977, 10:51 a.m. UTC

Rocket: Delta 2914

Launch pad: Space Launch Complex 17B

Location: Cape Canaveral SFS, FL, USA

...

Latest news about this satellite

There are no fresh news available about this satellite. Check back as we update our databases every day.


Newsletter sign-up

Weekly statistics, charts and insights to help you stay on top of the space industry.